Temperature
1 1 1 1 2 2 2 2 2 2 2 2 3 3 3 3 3 3 3 3 3 4 4 4 4 4 4 4 5 5 5 4 4 4 5 5 5 5 5 5 5 5 5
0 0 1 1 1 1 1 2 1 1 2 2 2 2 2 2 2 2 2 3 3 3 3 3 3 3 4 4 4 4 4 4 4 4 4 4 4 4 4 4 4 4 4
-1 -0 0 0 0 1 1 1 1 1 1 1 1 1 2 2 2 2 2 2 2 2 2 3 3 3 3 3 3 3 3 3 3 3 4 4 4 4 4 4 4 4 4
-1 -1 -1 -0 -0 -0 0 0 0 0 0 1 1 1 1 1 1 1 1 1 2 2 2 2 2 2 2 3 3 3 3 3 3 3 3 3 3 3 3 3 3 3 3
-2 -1 -1 -1 -1 -1 -1 -1 -0 -0 -0 -0 0 0 0 0 0 1 1 1 1 1 1 1 1 2 2 2 2 2 2 2 2 2 2 2 2 2 2 2 2 3 3
-2 -2 -2 -2 -2 -1 -1 -1 -1 -1 -1 -1 -0 -1 -0 -0 -0 -0 -0 -0 0 0 1 1 1 1 1 1 1 1 1 2 2 2 1 1 2 2 2 2 2 2 2
-3 -2 -2 -2 -2 -2 -2 -2 -2 -2 -1 -1 -1 -1 -1 -1 -1 -1 -1 -1 -1 -0 -0 -0 0 0 0 0 1 1 1 1 1 1 1 1 1 1 1 1 1 1 1
-3 -3 -3 -3 -3 -2 -2 -2 -2 -2 -2 -2 -2 -2 -2 -1 -1 -1 -1 -1 -1 -1 -1 -1 -0 -0 -0 -0 -0 0 0 0 0 0 0 0 0 0 1 1 1 1 1
-4 -4 -3 -3 -3 -3 -3 -3 -3 -3 -3 -2 -2 -2 -2 -2 -2 -2 -2 -2 -2 -1 -1 -1 -1 -1 -1 -1 -1 -1 -0 -0 -0 -0 -0 -0 -0 -0 0 -0 -0 -0 -0
-4 -4 -4 -4 -4 -3 -3 -3 -3 -3 -3 -3 -3 -3 -3 -2 -2 -2 -2 -2 -2 -2 -2 -2 -1 -1 -1 -1 -1 -1 -1 -1 -1 -1 -1 -1 -1 -1 -1 -1 -1 -1 -1
-5 -5 -4 -4 -4 -4 -4 -4 -4 -4 -4 -4 -4 -3 -3 -3 -3 -3 -3 -3 -3 -3 -2 -2 -2 -2 -2 -2 -2 -2 -2 -2 -2 -2 -1 -1 -1 -1 -1 -1 -1 -1 -1
-5 -5 -5 -4 -4 -4 -4 -4 -4 -4 -4 -4 -4 -4 -4 -4 -4 -3 -3 -3 -3 -3 -3 -3 -3 -3 -2 -2 -2 -2 -2 -2 -2 -2 -2 -2 -2 -2 -2 -2 -2 -2 -2
-6 -5 -5 -5 -5 -5 -5 -5 -5 -5 -5 -5 -5 -5 -5 -4 -4 -4 -4 -4 -4 -4 -3 -3 -3 -3 -3 -3 -3 -3 -3 -3 -3 -3 -3 -3 -3 -3 -3 -3 -3 -3 -3
-6 -6 -6 -5 -5 -5 -5 -5 -6 -6 -6 -5 -5 -5 -5 -5 -5 -5 -5 -4 -4 -4 -4 -4 -4 -4 -4 -3 -3 -3 -3 -3 -3 -3 -3 -3 -3 -3 -3 -3 -3 -3 -3
-6 -6 -6 -6 -6 -6 -6 -6 -6 -6 -6 -6 -6 -6 -6 -5 -5 -5 -5 -5 -5 -5 -5 -4 -4 -4 -4 -4 -4 -4 -4 -4 -4 -4 -4 -4 -4 -4 -4 -4 -4 -4 -4
-7 -7 -7 -7 -7 -7 -7 -6 -6 -6 -6 -6 -6 -6 -6 -6 -6 -5 -5 -5 -5 -5 -5 -5 -5 -5 -5 -5 -5 -5 -5 -4 -5 -5 -5 -5 -5 -5 -5 -5 -5 -5 -5
-7 -7 -7 -7 -7 -7 -7 -7 -7 -7 -7 -6 -6 -6 -6 -6 -6 -6 -6 -6 -5 -5 -5 -5 -5 -5 -5 -5 -5 -5 -5 -5 -5 -5 -5 -5 -5 -5 -5 -5 -5 -5 -5
-8 -8 -8 -8 -8 -7 -7 -7 -7 -7 -7 -7 -7 -7 -7 -7 -7 -6 -6 -6 -6 -6 -6 -6 -6 -6 -6 -6 -6 -6 -6 -6 -6 -6 -6 -6 -6 -6 -6 -6 -6 -6 -6
-8 -8 -8 -8 -8 -8 -8 -8 -8 -8 -8 -8 -7 -7 -7 -7 -7 -7 -7 -7 -7 -7 -7 -7 -7 -7 -6 -6 -6 -6 -6 -6 -6 -6 -6 -6 -6 -6 -6 -6 -6 -6 -6
-9 -9 -9 -9 -9 -8 -8 -8 -8 -8 -8 -8 -8 -8 -8 -8 -8 -8 -8 -8 -8 -8 -7 -7 -7 -7 -7 -7 -7 -7 -7 -7 -6 -6 -6 -6 -7 -7 -7 -7 -7 -7 -7
-9 -9 -9 -9 -9 -9 -9 -9 -9 -9 -9 -9 -8 -9 -9 -8 -8 -8 -8 -8 -8 -8 -8 -8 -8 -8 -8 -7 -7 -7 -7 -7 -7 -7 -7 -7 -7 -7 -7 -7 -7 -7 -7
-9 -9 -9 -9 -9 -9 -9 -9 -9 -9 -9 -9 -9 -9 -9 -9 -9 -9 -9 -9 -9 -9 -9 -9 -8 -8 -8 -8 -8 -7 -7 -7 -7 -7 -7 -7 -7 -7 -8 -8 -8 -8 -8
-10 -10 -10 -10 -10 -10 -10 -10 -10 -10 -9 -9 -9 -9 -9 -9 -9 -9 -9 -9 -9 -9 -9 -9 -9 -9 -8 -8 -8 -8 -8 -8 -8 -8 -8 -8 -8 -8 -8 -8 -8 -8 -8
-10 -10 -10 -10 -10 -10 -10 -10 -10 -10 -10 -10 -10 -10 -10 -10 -10 -10 -10 -10 -9 -9 -9 -9 -9 -9 -9 -9 -9 -8 -8 -8 -8 -8 -8 -8 -8 -8 -8 -8 -8 -8 -9
-10 -10 -10 -11 -11 -10 -10 -10 -10 -10 -10 -10 -10 -10 -10 -10 -10 -10 -10 -10 -10 -10 -10 -10 -9 -9 -9 -9 -9 -9 -9 -9 -9 -9 -9 -9 -9 -9 -9 -9 -9 -9 -9
-11 -11 -11 -11 -11 -11 -11 -11 -11 -11 -11 -11 -11 -11 -11 -11 -11 -10 -10 -10 -10 -10 -10 -10 -10 -10 -10 -9 -9 -9 -9 -9 -9 -9 -9 -9 -9 -9 -9 -9 -9 -9 -9
Wind_Speed
2 2 2 2 1 1 2 2 2 2 2 2 3 3 3 3 3 3 4 4 4 4 3 4 4 4 3 3 3 4 4 4 5 4 2 2 3 3 3 4 5 5 5
3 3 3 2 1 2 2 2 2 3 3 3 3 3 3 3 3 4 4 5 5 5 5 5 5 4 4 4 4 4 4 4 4 5 4 3 4 3 3 4 4 5 5
3 3 3 2 2 2 2 2 2 3 3 3 2 3 3 4 4 5 5 6 6 6 6 6 6 5 5 4 4 4 4 4 4 4 4 3 3 2 3 3 3 3 4
3 3 3 3 2 2 2 2 3 3 3 3 3 4 4 4 5 5 5 6 6 6 6 6 6 6 6 5 4 5 4 4 4 4 3 3 2 2 3 3 3 3 3
4 4 4 3 3 2 2 2 3 3 3 3 3 3 4 4 4 5 5 5 6 6 5 6 5 5 5 4 4 5 4 4 4 4 3 3 3 3 3 3 4 3 3
4 4 4 3 3 3 3 2 3 3 3 3 4 4 4 4 4 5 5 5 6 6 6 5 5 5 5 5 5 5 6 6 6 5 4 5 5 4 3 3 3 3 3
4 4 4 4 3 3 3 3 3 3 4 4 4 4 5 5 5 6 5 5 6 6 6 6 5 5 6 5 5 5 5 5 6 6 6 6 6 5 5 5 5 4 4
4 4 4 3 3 3 3 3 3 3 3 4 4 4 5 5 5 6 6 6 5 6 6 6 6 5 5 6 5 5 4 5 5 5 6 6 5 5 5 5 5 4 4
4 4 4 4 3 3 4 4 4 3 4 4 4 5 5 5 5 6 5 4 4 5 5 6 6 6 6 6 5 5 5 4 3 4 5 5 6 6 5 3 3 3 4
5 5 5 4 4 4 4 4 4 4 4 3 4 4 5 5 5 6 6 4 4 5 5 5 6 7 7 7 6 6 6 5 4 3 3 3 3 4 5 4 4 4 3
5 5 5 4 4 4 4 4 4 3 3 3 4 4 4 4 5 6 6 4 4 5 4 4 5 7 7 8 7 6 6 5 4 4 3 2 2 2 3 3 3 3 4
5 5 4 4 4 3 3 3 3 3 3 3 3 4 3 3 4 5 6 6 6 5 5 4 4 6 7 7 6 5 6 5 4 3 3 3 3 2 2 2 3 3 4
5 5 4 4 3 3 3 3 3 3 3 3 3 3 3 3 3 4 5 6 6 5 4 5 5 5 5 5 5 5 4 4 3 4 4 3 3 2 2 2 2 2 3
4 4 4 3 3 3 3 3 3 3 3 3 3 3 3 3 3 3 3 3 4 3 3 3 4 4 4 3 3 3 3 3 3 4 3 2 2 2 2 2 2 2 3
4 4 3 3 3 3 3 3 3 4 4 4 3 3 3 4 4 5 4 3 3 3 3 2 3 2 2 2 2 2 2 2 3 3 3 3 2 2 2 2 2 2 3
3 3 3 2 2 2 2 3 3 4 5 5 5 5 4 5 5 4 4 4 4 3 3 2 2 3 3 3 2 2 2 2 2 2 3 3 3 3 3 2 2 3 3
3 3 3 3 2 2 2 2 3 3 3 4 4 4 4 4 4 3 2 2 2 2 2 2 2 2 2 2 3 3 3 2 2 2 3 3 3 3 3 3 3 3 3
3 3 3 3 3 3 2 2 2 2 3 3 3 4 4 4 4 3 3 2 1 1 1 1 2 2 2 2 3 2 2 2 2 3 3 3 3 3 3 3 3 4 4
3 2 3 3 2 2 2 2 2 2 2 2 3 3 4 4 3 3 2 1 1 1 2 2 2 2 2 2 3 2 3 3 3 3 3 3 3 3 3 4 4 5 5
3 3 3 2 2 2 2 2 2 2 2 2 2 3 3 3 2 2 2 1 1 2 2 2 2 3 3 2 2 3 3 3 3 3 3 3 4 4 4 5 4 4 5
3 2 3 2 2 2 2 2 2 2 2 2 3 3 4 2 2 2 2 2 2 2 3 3 3 3 3 3 3 3 3 3 3 3 4 4 4 4 4 4 4 5 5
2 2 2 2 2 2 2 2 2 2 2 3 3 4 5 3 2 2 3 3 3 3 3 3 3 3 3 3 3 3 4 4 4 4 4 4 4 4 4 4 4 4 5
2 2 2 2 2 2 2 2 2 2 2 3 3 3 3 3 3 3 3 3 3 3 3 4 3 3 4 4 4 4 5 5 5 5 5 4 4 4 4 5 5 5 5
2 2 2 2 2 2 2 2 2 3 3 3 3 3 3 3 3 4 4 4 4 4 4 4 4 4 5 5 5 5 6 6 6 6 7 6 6 5 5 5 5 6 6
2 2 2 2 2 2 2 3 3 3 3 3 3 3 3 3 4 4 4 4 4 4 5 5 4 5 6 6 6 6 7 8 8 7 7 7 7 7 6 6 6 6 6
2 2 2 2 3 3 3 3 3 3 3 3 3 4 4 4 4 4 4 4 4 5 5 5 6 7 7 7 8 8 9 9 9 9 8 7 7 6 6 6 7 7 7
Wind_Direction
323 307 301 284 263 269 246 242 251 254 248 232 227 229 221 222 228 225 216 215 219 222 224 227 235 232 227 222 221 224 230 235 241 252 264 276 265 267 250 239 237 241 240
313 308 304 302 297 285 285 276 268 254 248 240 228 227 225 226 231 233 226 220 220 222 223 225 230 231 227 226 221 224 228 235 241 248 262 264 263 264 263 249 244 241 245
303 306 310 303 291 286 288 284 275 262 253 250 240 237 232 230 232 233 231 225 224 225 224 225 227 226 228 227 227 227 229 231 233 235 247 261 263 260 263 270 259 247 251
311 313 310 308 294 286 283 271 264 258 250 244 242 243 239 235 235 234 235 232 226 226 226 226 227 226 232 227 231 230 226 226 227 228 235 246 258 257 256 258 263 256 258
327 326 317 319 313 306 288 275 266 260 256 248 242 246 247 242 239 237 234 237 228 226 227 228 229 227 238 242 238 235 226 225 224 228 234 241 245 242 242 252 264 264 265
323 317 314 319 316 314 309 297 279 268 263 257 247 242 245 245 248 247 240 237 232 226 228 230 230 226 230 238 243 240 235 229 225 228 236 239 244 251 247 250 260 268 261
315 313 310 312 309 307 307 303 289 282 272 263 256 249 248 248 244 244 242 241 238 230 227 228 230 231 229 232 233 229 236 243 237 233 236 242 246 248 246 249 248 258 266
309 312 309 309 306 305 300 292 289 286 280 271 262 254 253 250 245 245 243 242 241 235 231 229 227 229 227 223 225 226 232 241 238 234 238 244 249 250 241 247 256 268 283
309 309 305 300 297 295 293 292 292 287 283 280 274 260 254 254 247 247 245 238 240 238 234 233 229 228 224 220 225 227 233 244 245 236 242 248 250 245 236 238 240 248 267
303 302 299 292 287 286 286 289 288 282 281 286 282 275 263 257 248 245 247 236 237 238 232 231 231 230 223 223 226 229 230 236 232 235 239 236 239 232 227 230 231 238 261
301 299 295 291 289 284 285 287 286 282 282 284 282 282 278 269 252 248 250 240 234 238 235 233 230 224 227 233 238 239 237 235 231 231 233 239 241 237 234 238 240 241 247
299 298 293 292 294 286 284 288 288 282 278 279 281 286 285 280 267 256 257 254 247 242 240 239 233 227 232 240 244 234 235 233 226 225 227 236 240 245 250 258 264 265 264
294 292 289 292 288 280 280 284 285 278 270 270 271 276 285 288 274 262 261 258 252 249 244 237 235 235 240 240 228 223 226 222 216 223 228 238 248 255 258 274 291 291 290
284 287 291 292 290 290 286 282 278 276 271 270 271 273 279 282 280 272 258 250 242 242 243 230 224 230 232 220 217 219 223 217 213 221 230 241 250 250 248 256 266 272 279
283 286 293 291 286 288 290 289 280 279 275 274 269 269 271 275 282 284 273 257 250 236 236 240 231 215 208 203 205 209 214 213 218 219 225 233 238 246 260 272 274 271 266
286 291 291 291 287 281 285 300 310 293 305 296 291 285 288 294 300 293 279 267 255 231 229 225 225 216 213 213 214 221 227 219 217 219 222 228 235 241 252 261 260 260 266
279 286 290 292 286 282 282 284 301 317 319 315 312 310 309 318 319 318 308 286 257 226 239 234 241 236 227 226 228 231 235 228 218 215 220 226 231 234 238 245 250 258 266
286 288 289 287 291 284 280 279 283 295 311 323 329 334 335 332 333 339 342 346 329 319 284 261 256 256 249 238 234 235 233 226 218 218 222 226 226 230 236 240 245 256 264
292 290 290 291 293 293 286 281 282 285 292 306 324 336 339 333 334 344 350 330 298 292 292 287 279 274 267 253 243 239 236 232 226 224 224 227 228 228 236 242 246 253 261
289 297 299 296 297 299 299 288 278 279 286 295 305 319 325 324 319 322 320 309 292 288 288 285 283 278 273 263 251 239 235 233 228 230 229 228 230 231 233 239 244 250 256
289 292 296 293 290 289 290 293 284 271 277 286 293 302 312 304 298 303 302 294 284 282 284 283 278 276 270 265 258 247 242 240 234 232 230 231 230 232 237 241 245 249 253
290 292 292 291 291 295 297 295 292 282 279 286 296 302 306 304 297 292 291 293 290 281 275 274 273 268 263 259 255 251 247 245 238 231 230 229 232 235 238 240 243 249 251
296 294 293 294 292 299 302 302 301 298 296 294 295 296 299 295 293 293 295 299 294 290 284 275 269 269 270 266 259 250 246 244 243 238 231 230 232 235 239 241 243 248 250
289 286 284 284 284 284 286 291 293 294 296 296 296 296 295 291 291 294 297 294 294 293 290 281 273 272 277 277 270 263 257 254 250 245 239 234 234 237 239 242 247 247 249
279 280 283 280 275 273 276 280 285 288 289 290 291 292 292 291 292 293 294 294 295 291 292 287 279 275 274 274 272 271 269 265 258 251 247 239 235 235 237 242 245 250 250
273 274 277 279 277 275 274 277 280 283 284 287 290 291 290 289 288 290 292 294 295 293 293 288 285 284 280 275 272 274 275 268 258 255 253 245 238 237 237 242 245 246 250
Height
1498 1498 1499 1500 1501 1502 1503 1503 1505 1506 1507 1508 1510 1511 1512 1514 1515 1516 1517 1519 1520 1521 1522 1523 1524 1526 1527 1529 1530 1531 1532 1533 1532 1532 1532 1533 1533 1533 1534 1534 1534 1534 1534
1496 1497 1497 1497 1498 1499 1499 1500 1501 1502 1504 1505 1505 1507 1508 1509 1511 1512 1513 1514 1515 1516 1517 1519 1520 1522 1523 1524 1526 1527 1528 1528 1529 1528 1528 1529 1529 1529 1529 1530 1530 1530 1530
1495 1495 1494 1494 1495 1496 1496 1497 1498 1499 1500 1500 1501 1503 1504 1505 1507 1508 1509 1510 1511 1512 1513 1514 1515 1517 1518 1520 1521 1522 1523 1524 1524 1524 1524 1525 1525 1526 1526 1525 1525 1526 1526
1492 1492 1492 1492 1493 1493 1494 1495 1495 1496 1496 1496 1498 1499 1500 1501 1502 1503 1504 1505 1506 1507 1508 1509 1511 1512 1513 1514 1516 1517 1518 1518 1520 1520 1520 1520 1521 1521 1522 1521 1521 1521 1521
1489 1489 1489 1489 1490 1490 1491 1492 1492 1492 1493 1493 1494 1495 1496 1497 1497 1498 1499 1500 1501 1502 1504 1505 1506 1507 1508 1509 1511 1512 1513 1514 1515 1515 1515 1516 1516 1517 1517 1517 1517 1517 1517
1487 1487 1487 1487 1487 1488 1488 1488 1489 1489 1489 1490 1490 1491 1491 1492 1493 1494 1495 1496 1497 1498 1499 1500 1501 1502 1503 1504 1506 1507 1509 1510 1510 1511 1511 1511 1512 1513 1513 1513 1513 1512 1512
1485 1485 1485 1485 1485 1485 1485 1485 1486 1486 1486 1486 1486 1487 1487 1488 1489 1490 1491 1492 1492 1493 1494 1495 1496 1497 1498 1500 1500 1502 1503 1504 1506 1507 1506 1506 1507 1508 1508 1508 1508 1508 1508
1483 1483 1483 1483 1482 1482 1483 1483 1483 1483 1483 1483 1483 1483 1483 1483 1484 1485 1487 1488 1488 1488 1489 1490 1492 1492 1494 1495 1496 1497 1498 1499 1500 1501 1502 1502 1503 1503 1503 1504 1503 1503 1503
1481 1480 1480 1480 1480 1480 1480 1480 1480 1480 1480 1479 1479 1479 1479 1479 1480 1481 1483 1483 1483 1484 1485 1486 1487 1488 1489 1491 1492 1492 1493 1494 1495 1496 1497 1497 1498 1499 1499 1499 1499 1499 1498
1479 1478 1478 1478 1477 1477 1477 1477 1477 1477 1476 1476 1475 1475 1475 1475 1475 1477 1478 1479 1479 1479 1480 1481 1483 1484 1485 1486 1487 1488 1488 1489 1490 1491 1492 1492 1493 1493 1494 1494 1494 1494 1493
1477 1476 1476 1475 1475 1475 1475 1474 1474 1473 1473 1472 1472 1472 1471 1471 1471 1472 1473 1474 1475 1475 1476 1477 1478 1479 1480 1481 1482 1483 1484 1485 1486 1487 1487 1487 1487 1488 1488 1489 1489 1489 1489
1474 1473 1473 1473 1472 1472 1472 1471 1470 1470 1469 1469 1468 1468 1468 1468 1468 1468 1469 1470 1470 1471 1471 1472 1473 1474 1475 1476 1477 1478 1479 1480 1481 1482 1482 1482 1483 1483 1483 1484 1484 1484 1484
1472 1471 1470 1470 1469 1469 1468 1467 1467 1467 1466 1466 1465 1465 1464 1464 1464 1464 1465 1465 1465 1466 1466 1467 1468 1469 1471 1471 1472 1473 1474 1476 1476 1477 1477 1477 1478 1478 1478 1479 1479 1478 1479
1469 1468 1467 1466 1466 1466 1465 1465 1464 1464 1463 1463 1462 1462 1462 1461 1461 1461 1461 1461 1461 1462 1462 1463 1464 1465 1466 1467 1467 1468 1469 1470 1471 1472 1472 1473 1473 1474 1474 1474 1474 1474 1474
1466 1465 1464 1464 1463 1462 1462 1462 1462 1461 1461 1460 1460 1459 1459 1458 1458 1458 1458 1458 1458 1458 1459 1459 1460 1461 1461 1462 1463 1464 1465 1466 1467 1467 1468 1468 1469 1469 1470 1470 1470 1469 1469
1463 1462 1461 1461 1460 1460 1459 1459 1459 1459 1458 1458 1457 1457 1456 1456 1456 1455 1455 1455 1455 1455 1456 1455 1456 1457 1458 1458 1459 1460 1461 1461 1462 1463 1464 1464 1465 1465 1465 1466 1466 1466 1465
1460 1459 1459 1458 1458 1457 1457 1456 1456 1456 1455 1455 1454 1454 1453 1453 1453 1452 1452 1452 1452 1452 1452 1452 1453 1454 1454 1455 1455 1456 1457 1457 1458 1459 1459 1460 1460 1461 1461 1461 1461 1461 1461
1458 1457 1457 1456 1456 1455 1455 1454 1454 1453 1452 1452 1452 1451 1450 1450 1450 1449 1449 1449 1448 1449 1449 1449 1450 1450 1451 1451 1452 1452 1453 1453 1454 1455 1455 1456 1456 1457 1457 1457 1457 1457 1457
1456 1455 1454 1454 1453 1453 1453 1452 1452 1451 1450 1450 1449 1449 1448 1447 1447 1447 1446 1446 1445 1446 1446 1446 1447 1447 1447 1448 1449 1449 1449 1450 1450 1451 1451 1452 1452 1452 1452 1453 1453 1453 1453
1454 1453 1453 1452 1451 1451 1450 1450 1449 1449 1448 1448 1447 1447 1446 1445 1444 1444 1444 1443 1443 1443 1443 1443 1443 1444 1444 1445 1445 1445 1446 1446 1446 1447 1447 1447 1448 1448 1448 1448 1448 1448 1448
1452 1451 1451 1450 1449 1449 1448 1447 1447 1446 1446 1446 1446 1445 1445 1443 1442 1442 1441 1441 1441 1441 1440 1440 1440 1441 1441 1441 1441 1442 1442 1442 1442 1443 1443 1443 1444 1444 1444 1444 1444 1444 1444
1451 1450 1449 1448 1447 1447 1446 1445 1445 1444 1444 1444 1443 1443 1442 1441 1440 1440 1439 1439 1438 1438 1438 1438 1437 1437 1437 1438 1438 1438 1438 1438 1438 1439 1439 1439 1439 1440 1440 1440 1440 1440 1440
1449 1448 1447 1446 1445 1445 1444 1443 1443 1442 1442 1441 1441 1440 1439 1439 1438 1437 1436 1436 1435 1435 1435 1434 1434 1434 1433 1433 1433 1433 1433 1434 1434 1434 1434 1435 1435 1435 1435 1435 1435 1435 1435
1446 1446 1445 1444 1443 1443 1442 1441 1441 1440 1440 1439 1438 1437 1437 1436 1435 1434 1433 1433 1432 1432 1431 1431 1430 1430 1429 1429 1429 1429 1429 1429 1429 1430 1430 1430 1431 1431 1431 1431 1431 1431 1431
1444 1443 1443 1442 1441 1441 1440 1439 1439 1438 1437 1436 1435 1435 1434 1433 1432 1431 1430 1429 1429 1428 1427 1427 1426 1425 1425 1424 1424 1424 1424 1424 1425 1425 1425 1426 1426 1426 1426 1426 1426 1426 1426
1442 1441 1440 1440 1439 1438 1438 1437 1436 1435 1434 1434 1433 1432 1431 1430 1429 1428 1427 1426 1425 1424 1423 1422 1421 1420 1420 1420 1419 1419 1420 1420 1420 1420 1421 1421 1421 1422 1422 1422 1422 1422 1422